This is the latest recevied weather packets stored in our database for station/object IZ1VWE-3. If no packets are shown the sender has not sent any weather packets the latest 10 day(s).
| Time | Temp. | Humidity | Pressure | Rain* | Wind** | Luminosity | Snow |
|---|---|---|---|---|---|---|---|
| 1777775427 | 11.11° C | 46% | 1017.8 hPa | - | - | - | - |
| 1777774226 | 11.11° C | 47% | 1017.8 hPa | - | - | - | - |
| 1777773026 | 11.11° C | 47% | 1017.8 hPa | - | - | - | - |
| 1777771826 | 11.11° C | 47% | 1017.9 hPa | - | - | - | - |
| 1777770626 | 11.11° C | 47% | 1018 hPa | - | - | - | - |
| 1777769425 | 11.11° C | 47% | 1018.1 hPa | - | - | - | - |
| 1777768225 | 11.67° C | 47% | 1018.2 hPa | - | - | - | - |
| 1777767025 | 11.67° C | 47% | 1018.4 hPa | - | - | - | - |
| 1777765824 | 11.67° C | 47% | 1018.5 hPa | - | - | - | - |
| 1777764624 | 12.22° C | 46% | 1018.6 hPa | - | - | - | - |
| 1777763424 | 13.33° C | 43% | 1016.7 hPa | - | - | - | - |
| 1777762223 | 13.33° C | 43% | 1018.9 hPa | - | - | - | - |
| 1777761023 | 12.78° C | 44% | 1018.9 hPa | - | - | - | - |
| 1777759823 | 13.33° C | 44% | 1019.1 hPa | - | - | - | - |
| 1777758622 | 13.33° C | 43% | 1019.3 hPa | - | - | - | - |
| 1777757422 | 13.89° C | 39% | 1019.2 hPa | - | - | - | - |
| 1777756222 | 14.44° C | 38% | 1019.3 hPa | - | - | - | - |
| 1777755021 | 15° C | 39% | 1019.3 hPa | - | - | - | - |
| 1777753821 | 14.44° C | 40% | 1019.4 hPa | - | - | - | - |
| 1777752621 | 15° C | 37% | 1019.4 hPa | - | - | - | - |
| 1777751420 | 15.56° C | 36% | 1019.1 hPa | - | - | - | - |
| 1777750220 | 15° C | 36% | 1018.9 hPa | - | - | - | - |
| 1777749020 | 15.56° C | 36% | 1019 hPa | - | - | - | - |
| 1777747819 | 16.11° C | 35% | 1016.6 hPa | - | - | - | - |
| 1777746619 | 16.67° C | 34% | 1018.7 hPa | - | - | - | - |
* Rain since midnight (hover to see other rain measurements)
** Current wind speed in m/s (hover to see current wind gust speed)